User: anonymous   Login
Location: Holcomb Observatory
(44.4922°N, 73.1654°W)
Time: 17:28:07
(UTC-04:00)
Language:

Cosmos 1727 Rocket - Orbit

View from above orbital plane
View from above orbital plane
View from above satellite
View from above satellite

Ground track
Ground track

The orbit data is extracted from the following two-line orbital elements,

1 16511U 86008B   15182.74731109  .00000101  00000-0  88329-4 0  9991
2 16511 082.9437 031.2231 0025410 122.3088 286.2316 13.75801017477769
Epoch (UTC): 01 July 2015 17:56:07
Eccentricity: 0.0025410
inclination: 82.9437°
perigee height: 960 km
apogee height: 997 km
right ascension of ascending node: 31.2231°
argument of perigee: 122.3088°
revolutions per day: 13.75801017
mean anomaly at epoch: 286.2316°
orbit number at epoch: 47776

The dashed part of the orbit path shows where the satellite is in the earth's shadow,  

DLR